,

(GMT )
Al Udeid

Weather History for KQIR - August, 2013

Change the Weather History Date:

Saturday, August 24, 2013

  Actual Average Record
Temperature  
Mean Temperature 96 °F -  
Max Temperature 111 °F - - ()
Min Temperature 81 °F - - ()
Cooling Degree Days 31    
Growing Degree Days 46 (Base 50)    
Moisture  
Dew Point 59 °F    
Average Humidity 37    
Maximum Humidity 79    
Minimum Humidity 7    
Precipitation  
Precipitation 0.00 in - - ()
Sea Level Pressure  
Sea Level Pressure 29.56 in    
Wind  
Wind Speed 8 mph ()    
Max Wind Speed 21 mph    
Max Gust Speed 28 mph    
Visibility 6.1 miles    
Events      
Averages and records for this station are not official NWS values.
T = Trace of Precipitation, MM = Missing Value Source: Averaged Metar Reports

Daily Weather History Graph

Daily Weather History Graph

Search for Another Location

Airport or City:

Trip Planner

Search our weather history database for the weather conditions in past years. The results will help you decide how hot, cold, wet, or windy it might be!

Date:

Astronomy

Aug. 24, 2013 Rise Set
Actual Time 5:12 AM +03 6:01 PM +03
Civil Twilight 4:48 AM +03 6:25 PM +03
Nautical Twilight 4:20 AM +03 6:52 PM +03
Astronomical Twilight 3:52 AM +03 7:20 PM +03
Moon 8:12 PM +03 (8/24) 8:18 AM +03 (8/24)
Length of Visible Light 13h 36m
Length of Day
12h 49m
Waning Gibbous, 86% of the Moon is Illuminated
Aug 24
Waning Gibbous
Aug 28
Last Quarter
Sep 5
New
Sep 12
First Quarter
Sep 19
Full

Hourly Weather History & Observations

Time (+03) Temp. Heat Index Dew Point Humidity Pressure Visibility Wind Dir Wind Speed Gust Speed Precip Events Conditions
12:55 AM 85.8 °F 90.8 °F 70.7 °F 60% 29.57 in 6.2 mi WNW 6.9 mph - N/A   Clear
1:55 AM 85.1 °F 91.1 °F 72.3 °F 65% 29.56 in 6.2 mi WNW 3.5 mph - N/A   Clear
2:55 AM 84.6 °F 90.3 °F 72.0 °F 66% 29.55 in 6.2 mi WNW 8.1 mph - N/A   Clear
3:55 AM 82.6 °F 86.6 °F 70.3 °F 66% 29.56 in 6.2 mi West 4.6 mph - N/A   Clear
4:55 AM 81.7 °F 86.9 °F 73.2 °F 75% 29.57 in 6.2 mi West 5.8 mph - N/A   Clear
5:55 AM 82.2 °F 89.1 °F 75.2 °F 79% 29.58 in 5.0 mi WNW 5.8 mph - N/A   Haze
6:55 AM 86.9 °F 97.8 °F 76.5 °F 71% 29.59 in 6.2 mi WNW 4.6 mph - N/A   Clear
7:55 AM 95.5 °F 99.4 °F 67.1 °F 39% 29.61 in 6.2 mi NW 10.4 mph - N/A   Clear
8:55 AM 102.0 °F 101.6 °F 57.6 °F 23% 29.61 in 6.2 mi NNW 10.4 mph - N/A   Clear
9:55 AM 105.3 °F 103.5 °F 54.0 °F 18% 29.60 in 6.2 mi NNW 12.7 mph - N/A   Clear
10:55 AM 107.8 °F - 51.3 °F 15% 29.58 in 6.2 mi North 15.0 mph 21.9 mph N/A   Clear
11:55 AM 110.3 °F - 44.4 °F 11% 29.56 in 6.2 mi North 17.3 mph 23.0 mph N/A   Clear
12:55 PM 111.4 °F - 39.9 °F 9% 29.54 in 6.2 mi North 20.7 mph 27.6 mph N/A   Clear
1:55 PM 111.0 °F - 43.9 °F 11% 29.53 in 6.2 mi NNW 20.7 mph - N/A   Clear
2:55 PM 111.0 °F - 37.8 °F 8% 29.53 in 6.2 mi North 19.6 mph 26.5 mph N/A   Clear
3:55 PM 110.3 °F - 33.8 °F 7% 29.52 in 6.2 mi North 17.3 mph - N/A   Clear
4:55 PM 108.7 °F - 32.7 °F 7% 29.53 in 6.2 mi North 18.4 mph - N/A   Clear
5:55 PM 105.6 °F - 33.8 °F 8% 29.53 in 6.2 mi North 10.4 mph - N/A   Clear
6:55 PM 101.3 °F 102.7 °F 61.3 °F 27% 29.54 in 6.2 mi ENE 6.9 mph - N/A   Clear
7:55 PM 97.3 °F 103.6 °F 69.6 °F 40% 29.56 in 6.2 mi NE 4.6 mph - N/A   Clear
8:55 PM 95.5 °F 101.2 °F 69.4 °F 42% 29.57 in 6.2 mi NE 4.6 mph - N/A   Clear
9:55 PM 93.7 °F 101.7 °F 72.1 °F 49% 29.57 in 6.2 mi North 4.6 mph - N/A   Clear
10:55 PM 87.8 °F 90.4 °F 66.6 °F 49% 29.56 in 6.2 mi WSW 3.5 mph - N/A   Clear
11:55 PM 85.6 °F 86.8 °F 63.9 °F 48% 29.54 in 6.2 mi SW 5.8 mph - N/A   Clear